Location: Boiro
(42.6475°N, 8.8834°W)
Time: 00:41:03
(UTC+01:00)

Transit 2A Rocket - Pass Details

Date: 06 December 2021
Orbit: 584 x 917 km, 66.7° (Epoch: 23 January)

Event Time Altitude Azimuth Distance (km) Brightness Sun altitude
Rises 09:17:30 0° 228° (SW) 3,319 8.2 3.2°
Reaches altitude 10° 09:19:57 10° 234° (SW) 2,438 7.4 3.6°
Maximum altitude 09:25:25 47° 308° (NW) 1,145 5.6 4.4°
Drops below altitude 10° 09:31:16 10° 22° (NNE) 2,599 7.6 5.3°
Sets 09:33:58 0° 28° (NNE) 3,558 8.3 5.7°
